Location: Mahannah Oil Field
(37.4664°N, 96.6003°W)
Time: 01:52:40
(UTC+00:00)

A-11 Canister half - Pass Details

Date: 24 January 2021
Orbit: 1524 x 1684 km, 47.3° (Epoch: 25 February)

Event Time Altitude Azimuth Distance (km) Brightness Sun altitude
Rises 18:13:25 0° 186° (S) 4,660 12.6 33.2°
Reaches altitude 10° 18:17:22 10° 171° (S) 3,678 12.5 33.3°
Maximum altitude 18:23:51 22° 126° (SE) 2,883 11.2 33.4°
Drops below altitude 10° 18:30:22 10° 81° (E) 3,718 11.0 33.5°
Sets 18:34:21 0° 67° (ENE) 4,724 11.4 33.5°
